M2 PATHFINDER

Last updated on Sun Jun 21 2026 00:03:50 GMT+0000 (Coordinated Universal Time)

1 45727U 20037E 26171.43841074 .00001221 00000+0 91194-4 0 9998 2 45727 97.8142 2.7066 0012540 136.7896 223.4315 15.04684164325987
UTC large
Height (km)
Speed (km/s)
/
Latitude / Longitude
Inclination (degrees)
Orbital Period (minutes)
Azimuth
Elevation
Range (km)
Doppler Factor

Next 0 passes for location: London (51.5072 / 0.1276)

No passes found over London.
M2 PATHFINDER